Location: Newark
(59.4564°N, 26.6917°E)
Time: 18:07:20
(UTC+00:00)

Vanguard 3 - Pass Details

Date: 23 November 2019
Orbit: 508 x 3263 km, 33.3° (Epoch: 07 December)

Event Time Altitude Azimuth Distance (km) Brightness Sun altitude
Rises 16:19:32 0° 265° (W) 7,221 13.6 -20.0°
Reaches altitude 10° 16:27:44 10° 247° (WSW) 5,997 12.6 -21.0°
Maximum altitude 16:35:58 15° 220° (SW) 5,147 11.7 -22.0°
Drops below altitude 10° 16:43:04 10° 192° (SSW) 5,034 11.3 -22.9°
Sets 16:48:51 0° 171° (S) 5,489 11.3 -23.7°
